Weather History for Van Nuys, CA

Change the Weather History Date:

Thursday, May 1, 2014

  Actual Average Record
Temperature  
Mean Temperature 80 °F -  
Max Temperature 95 °F 74 °F 95 °F (2014)
Min Temperature 66 °F 52 °F 46 °F (1999)
Cooling Degree Days 16    
Growing Degree Days 30 (Base 50)    
Moisture  
Dew Point 10 °F    
Average Humidity 8    
Maximum Humidity 16    
Minimum Humidity 4    
Precipitation  
Precipitation 0.00 in - - ()
Sea Level Pressure  
Sea Level Pressure 29.98 in    
Wind  
Wind Speed 9 mph (North)    
Max Wind Speed 20 mph    
Max Gust Speed 32 mph    
Visibility 10 miles    
Events      
Averages and records for this station are not official NWS values.
T = Trace of Precipitation, MM = Missing Value Source: NWS Daily Summary

Daily Weather History Graph

Daily Weather History Graph

Search for Another Location

Airport:

Trip Planner

Search our weather history database for the weather conditions in past years. The results will help you decide how hot, cold, wet, or windy it might be!

Date:

Astronomy

May. 01, 2014 Rise Set
Actual Time 6:04 AM PDT 7:38 PM PDT
Civil Twilight 5:37 AM PDT 8:05 PM PDT
Nautical Twilight 5:05 AM PDT 8:37 PM PDT
Astronomical Twilight 4:31 AM PDT 9:11 PM PDT
Moon 7:58 AM PDT (5/1) 10:12 PM PDT (5/1)
Length of Visible Light 14h 27m
Length of Day
13h 33m
Waxing Crescent, 7% of the Moon is Illuminated
May 1
Waxing Crescent
May 6
First Quarter
May 14
Full
May 21
Last Quarter
May 28
New

Hourly Weather History & Observations

Time (PDT) Temp. Dew Point Humidity Pressure Visibility Wind Dir Wind Speed Gust Speed Precip Events Conditions
12:51 AM 69.1 °F 15.1 °F 13% 29.97 in 10.0 mi Calm Calm - N/A   Clear
1:51 AM 68.0 °F 16.0 °F 14% 29.96 in 10.0 mi Calm Calm - N/A   Clear
2:51 AM 66.0 °F 18.0 °F 16% 29.96 in 10.0 mi Calm Calm - N/A   Clear
3:51 AM 72.0 °F 12.0 °F 10% 29.96 in 10.0 mi North 11.5 mph - N/A   Clear
4:51 AM 75.0 °F 7.0 °F 7% 29.96 in 10.0 mi North 16.1 mph - N/A   Clear
5:51 AM 73.9 °F 7.0 °F 8% 30.00 in 10.0 mi North 13.8 mph - N/A   Partly Cloudy
5:58 AM 73.4 °F 6.8 °F 8% 30.03 in 10.0 mi NNE 15.0 mph - N/A   Clear
6:51 AM 73.0 °F 9.0 °F 8% 30.02 in 10.0 mi North 11.5 mph - N/A   Clear
7:51 AM 77.0 °F 10.9 °F 8% 30.04 in 10.0 mi North 16.1 mph - N/A   Scattered Clouds
8:51 AM 81.0 °F 10.9 °F 7% 30.05 in 10.0 mi North 12.7 mph 25.3 mph N/A   Partly Cloudy
9:51 AM 86.0 °F 8.1 °F 5% 30.04 in 10.0 mi NE 15.0 mph 25.3 mph N/A   Clear
10:51 AM 87.1 °F 9.0 °F 5% 30.04 in 10.0 mi North 18.4 mph 26.5 mph N/A   Clear
11:51 AM 89.1 °F 9.0 °F 5% 30.03 in 10.0 mi NNE 13.8 mph 25.3 mph N/A   Clear
12:51 PM 91.0 °F 9.0 °F 5% 30.01 in 10.0 mi NNW 12.7 mph 28.8 mph N/A   Scattered Clouds
1:51 PM 93.0 °F 7.0 °F 4% 29.99 in 10.0 mi NNE 13.8 mph 20.7 mph N/A   Clear
2:51 PM 93.9 °F 6.1 °F 4% 29.97 in 10.0 mi NNE 19.6 mph 32.2 mph N/A   Clear
3:51 PM 95.0 °F 5.0 °F 4% 29.95 in 10.0 mi NNE 17.3 mph 26.5 mph N/A   Clear
4:51 PM 93.9 °F 6.1 °F 4% 29.93 in 10.0 mi North 17.3 mph - N/A   Clear
5:51 PM 93.0 °F 3.9 °F 4% 29.92 in 10.0 mi North 17.3 mph 23.0 mph N/A   Clear
6:51 PM 91.0 °F 1.0 °F 4% 29.92 in 10.0 mi NNE 11.5 mph - N/A   Clear
7:51 PM 82.9 °F 18.0 °F 9% 29.94 in 10.0 mi West 6.9 mph - N/A   Clear
8:51 PM 79.0 °F 17.1 °F 10% 29.96 in 10.0 mi West 5.8 mph - N/A   Clear
9:51 PM 77.0 °F 15.1 °F 10% 29.97 in 10.0 mi West 4.6 mph - N/A   Clear
11:51 PM 73.0 °F 21.0 °F 14% 29.96 in 10.0 mi Calm Calm - N/A   Clear